This is the latest recevied weather packets stored in our database for station/object DL6DJ-15. If no packets are shown the sender has not sent any weather packets the latest 1 day(s).
| Time | Temp. | Humidity | Pressure | Rain* | Wind** | Luminosity | Snow |
|---|---|---|---|---|---|---|---|
| 1778086708 | 18.89° C | 47% | 1005.2 hPa | - | - | - | - |
| 1778085807 | 18.89° C | 48% | 1005.7 hPa | - | - | - | - |
| 1778085206 | 18.89° C | 46% | 1005.6 hPa | - | - | - | - |
| 1778084605 | 18.89° C | 46% | 1005.5 hPa | - | - | - | - |
| 1778084004 | 19.44° C | 45% | 1005.8 hPa | - | - | - | - |
| 1778083704 | 19.44° C | 44% | 1005.8 hPa | - | - | - | - |
| 1778083403 | 20° C | 43% | 1005.8 hPa | - | - | - | - |
| 1778081901 | 20.56° C | 39% | 1005.6 hPa | - | - | - | - |
| 1778081601 | 21.11° C | 39% | 1005.5 hPa | - | - | - | - |
| 1778081000 | 20.56° C | 40% | 1005.6 hPa | - | - | - | - |
| 1778080400 | 21.11° C | 38% | 1005.6 hPa | - | - | - | - |
| 1778080099 | 21.11° C | 36% | 1005.6 hPa | - | - | - | - |
| 1778079198 | 21.11° C | 38% | 1005.6 hPa | - | - | - | - |
| 1778078897 | 21.11° C | 37% | 1005.6 hPa | - | - | - | - |
| 1778078597 | 21.67° C | 36% | 1005.6 hPa | - | - | - | - |
| 1778077696 | 22.22° C | 36% | 1005.7 hPa | - | - | - | - |
| 1778076194 | 22.78° C | 37% | 1005.7 hPa | - | - | - | - |
| 1778073791 | 22.22° C | 37% | 1006.2 hPa | - | - | - | - |
| 1778073190 | 23.33° C | 35% | 1006.2 hPa | - | - | - | - |
| 1778072890 | 22.78° C | 37% | 1006.2 hPa | - | - | - | - |
| 1778071688 | 23.89° C | 35% | 1006.4 hPa | - | - | - | - |
| 1778070186 | 23.33° C | 33% | 1006.5 hPa | - | - | - | - |
| 1778069886 | 23.33° C | 35% | 1006.6 hPa | - | - | - | - |
| 1778068083 | 23.33° C | 38% | 1007.1 hPa | - | - | - | - |
| 1778065981 | 22.22° C | 40% | 1007.6 hPa | - | - | - | - |
* Rain since midnight (hover to see other rain measurements)
** Current wind speed in m/s (hover to see current wind gust speed)